Weather History for Slidell, LA

Change the Weather History Date:

Thursday, June 20, 2013

  Actual Average (KNEW) Record (KNEW)
Temperature  
Mean Temperature 80 °F 82 °F  
Max Temperature 90 °F 90 °F 97 °F (1990)
Min Temperature 70 °F 74 °F 59 °F (1965)
Degree Days  
Heating Degree Days 0 0  
Month to date heating degree days 0  
Since 1 June heating degree days 0  
Since 1 July heating degree days 1280  
Cooling Degree Days 14 17  
Month to date cooling degree days 320  
Year to date cooling degree days 939  
Since 1 June cooling degree days 320  
Growing Degree Days 30 (Base 50)    
Moisture  
Dew Point 73 °F    
Average Humidity 82    
Maximum Humidity 100    
Minimum Humidity 59    
Precipitation  
Precipitation 0.27 in 0.29 in 1.55 in (1963)
Month to date precipitation 5.36  
Year to date precipitation 29.60  
Snow  
Snow 0.00 in - - ()
Month to date snowfall  
Since 1 June snowfall  
Since 1 July snowfall  
Snow Depth -    
Sea Level Pressure  
Sea Level Pressure 30.07 in    
Wind  
Wind Speed 3 mph (NW)    
Max Wind Speed 17 mph    
Max Gust Speed 24 mph    
Visibility 9 miles    
Events Rain , Thunderstorm    
T = Trace of Precipitation, MM = Missing Value Source: NWS Daily Summary

Daily Weather History Graph

Daily Weather History Graph

Search for Another Location

Airport:

Trip Planner

Search our weather history database for the weather conditions in past years. The results will help you decide how hot, cold, wet, or windy it might be!

Date:

Astronomy

Jun. 20, 2013 Rise Set
Actual Time 5:57 AM CDT 8:04 PM CDT
Civil Twilight 5:30 AM CDT 8:31 PM CDT
Nautical Twilight 4:56 AM CDT 9:05 PM CDT
Astronomical Twilight 4:20 AM CDT 9:41 PM CDT
Moon 5:13 PM CDT (6/20) 3:15 AM CDT (6/20)
Length of Visible Light 15h 01m
Length of Day
14h 06m
Waxing Gibbous, 89% of the Moon is Illuminated
Jun 20
Waxing Gibbous
Jun 23
Full
Jun 29
Last Quarter
Jul 8
New
Jul 15
First Quarter

Hourly Weather History & Observations

Time (CDT) Temp. Heat Index Dew Point Humidity Pressure Visibility Wind Dir Wind Speed Gust Speed Precip Events Conditions
12:53 AM 73.9 °F - 73.0 °F 97% 30.03 in 10.0 mi Calm Calm - N/A   Clear
1:53 AM 73.0 °F - 72.0 °F 96% 30.02 in 10.0 mi Calm Calm - N/A   Clear
2:53 AM 72.0 °F - 71.1 °F 97% 30.02 in 10.0 mi Calm Calm - N/A   Clear
3:53 AM 71.1 °F - 70.0 °F 96% 30.02 in 10.0 mi Calm Calm - N/A   Clear
4:53 AM 71.1 °F - 69.1 °F 93% 30.03 in 10.0 mi Calm Calm - N/A   Clear
5:53 AM 70.0 °F - 70.0 °F 100% 30.04 in 10.0 mi Calm Calm - N/A   Mostly Cloudy
6:53 AM 73.9 °F - 72.0 °F 93% 30.06 in 10.0 mi Calm Calm - N/A   Overcast
7:53 AM 78.1 °F - 75.0 °F 90% 30.09 in 10.0 mi NNE 4.6 mph - N/A   Overcast
8:53 AM 82.9 °F 90.8 °F 75.9 °F 79% 30.10 in 10.0 mi NE 5.8 mph - N/A   Partly Cloudy
9:53 AM 84.9 °F 92.1 °F 73.9 °F 69% 30.11 in 10.0 mi North 5.8 mph - N/A   Partly Cloudy
10:53 AM 87.1 °F 95.4 °F 73.9 °F 65% 30.10 in 10.0 mi NNW 6.9 mph - N/A   Mostly Cloudy
11:53 AM 87.1 °F 95.4 °F 73.9 °F 65% 30.09 in 10.0 mi NW 5.8 mph - N/A   Scattered Clouds
12:06 PM 89.6 °F 98.2 °F 73.4 °F 59% 30.09 in 10.0 mi NNW 4.6 mph - N/A Thunderstorm Partly Cloudy
12:48 PM 77.0 °F - 69.8 °F 78% 30.10 in 1.8 mi SW 9.2 mph 23.0 mph 0.02 in Rain , Thunderstorm Heavy Rain
12:53 PM 73.9 °F - 70.0 °F 87% 30.10 in 0.8 mi SW 11.5 mph 23.0 mph 0.06 in Rain , Thunderstorm Heavy Rain
1:03 PM 77.0 °F - 71.6 °F 83% 30.09 in 2.5 mi SW 5.8 mph - 0.08 in Rain , Thunderstorm Light Thunderstorms and Rain
1:10 PM 75.2 °F - 71.6 °F 89% 30.10 in 10.0 mi Calm Calm - 0.13 in Rain , Thunderstorm Light Thunderstorms and Rain
1:49 PM 78.8 °F - 73.4 °F 83% 30.09 in 10.0 mi SE 3.5 mph - 0.20 in Thunderstorm Partly Cloudy
1:53 PM 80.1 °F 84.5 °F 73.9 °F 81% 30.09 in 10.0 mi Calm Calm - 0.20 in Thunderstorm Partly Cloudy
2:10 PM 82.4 °F 89.5 °F 75.2 °F 79% 30.08 in 10.0 mi Calm Calm - N/A   Clear
2:24 PM 84.2 °F 94.1 °F 77.0 °F 79% 30.07 in 10.0 mi SE 4.6 mph - N/A Thunderstorm Clear
2:53 PM 84.9 °F 94.1 °F 75.9 °F 74% 30.06 in 10.0 mi SSE 5.8 mph - N/A Thunderstorm Clear
3:06 PM 84.2 °F 92.3 °F 75.2 °F 74% 30.05 in 10.0 mi Calm Calm - N/A   Clear
3:53 PM 82.0 °F 90.2 °F 77.0 °F 85% 30.05 in 10.0 mi Calm Calm - 0.01 in   Scattered Clouds
4:49 PM 87.8 °F 95.6 °F 73.4 °F 62% 30.05 in 10.0 mi Variable 3.5 mph - N/A Thunderstorm Clear
4:53 PM 87.1 °F 97.3 °F 75.9 °F 69% 30.05 in 10.0 mi West 5.8 mph - N/A Thunderstorm Clear
5:18 PM 84.2 °F 92.3 °F 75.2 °F 74% 30.05 in 10.0 mi West 5.8 mph - N/A   Clear
5:53 PM 84.0 °F 91.9 °F 75.0 °F 74% 30.04 in 10.0 mi NW 3.5 mph - N/A   Clear
6:39 PM 80.6 °F 84.6 °F 71.6 °F 74% 30.08 in 10.0 mi East 17.3 mph 24.2 mph N/A Thunderstorm Mostly Cloudy
6:53 PM 78.1 °F - 70.0 °F 76% 30.09 in 10.0 mi East 12.7 mph 23.0 mph N/A Thunderstorm Overcast
7:17 PM 75.2 °F - 69.8 °F 83% 30.08 in 10.0 mi Variable 3.5 mph - N/A   Mostly Cloudy
7:53 PM 75.0 °F - 69.1 °F 82% 30.07 in 10.0 mi Calm Calm - N/A   Clear
8:53 PM 73.9 °F - 71.1 °F 91% 30.06 in 10.0 mi Calm Calm - N/A   Clear
9:53 PM 73.0 °F - 71.1 °F 93% 30.07 in 10.0 mi Calm Calm - N/A   Clear
10:53 PM 72.0 °F - 70.0 °F 93% 30.08 in 10.0 mi Calm Calm - N/A   Clear
11:53 PM 72.0 °F - 70.0 °F 93% 30.09 in 10.0 mi Calm Calm - N/A   Clear